Aérodrome :
LOGIN :

S'inscrire | Disclaimer

   EN    FR    IT 

 










Légende :    VFR   VFR Marginal   IFR   IFR Intensif   IFR Très Intensif
Visi : 
Plafond : 
>= 8 km
>= 3000ft
5 à 8 km
1000 à 3000 ft
1500m à 5 km
500 à 1000 ft
800 à 1500m
200 à 500 ft
< 800m
< 200 ft
Symboles :   Orages  Brouillard  Fortes neiges  Fortes précipitations  Vent > 20 kt
SIGMETs :   Divers  Orages  Givrage  Turbulence  Onde Orograph.  Cendres Volcan.







- Altitude de l'aérodrome : 7 ft
- Code IATA : POW


LJPZ - Portoroz

DERNIER METAR :
  • 210300Z AUTO 12003KT 9999 FEW065/// BKN095/// OVC170/// 02/M01 Q1016

METARs EXPIRÉS :
  • 210230Z AUTO 12003KT 9999 NSC 02/M00 Q1015
  • 210200Z AUTO 13004KT 9999 NSC 02/M00 Q1016
  • 210130Z AUTO VRB02KT 9999 NSC 02/M00 Q1016
  • 210100Z AUTO VRB02KT 9999 NSC 02/M00 Q1016
  • 210030Z AUTO VRB03KT 9999 NSC 02/M00 Q1016

TAF TAF LJPZ
Valide du 21 à 03h jusqu'au 21 à 12h UTC


210200Z 2103/2112 12005KT CAVOK
BECMG 2108/2111 07005KT
Pas de NOTAMs connus pour ce terrain.



MET'MAP, la Météo Aéronautique d'un coup d'oeil ! - Copyright ORBIFLY Décembre 2007 - Disclaimer

ORBIFLY MET'MAP TEAM :

Programmation & Développement : Alexandra Zaïnal
Conception & Développement : Baudouin d'Aumeries
Co-Programmation & Développement : Marc-Olivier Méhu
Soutien technique & logistique : Manuel Goepfert

Contact : metmap@orbifly.com




SOURCES & CREDITS :

   NOAA